Change the Weather History Date:

Sunday, February 9, 2014

  Actual Average Record
Temperature  
Mean Temperature 65 °F 63 °F  
Max Temperature 76 °F 73 °F 93 °F (1962)
Min Temperature 54 °F 54 °F 24 °F (1895)
Degree Days  
Heating Degree Days 0 4  
Month to date heating degree days 104 43  
Since 1 July heating degree days 662 442  
Cooling Degree Days 0 3  
Month to date cooling degree days 9 22  
Year to date cooling degree days 30 81  
Growing Degree Days 12 (Base 50)    
Moisture  
Dew Point 61 °F    
Average Humidity 87    
Maximum Humidity 100    
Minimum Humidity 73    
Precipitation  
Precipitation 0.00 in 0.04 in 0.70 in (1902)
Month to date precipitation 0.04 0.42  
Year to date precipitation 0.72 1.69  
Sea Level Pressure  
Sea Level Pressure 30.05 in    
Wind  
Wind Speed 5 mph (SE)    
Max Wind Speed 15 mph    
Max Gust Speed 18 mph    
Visibility 9 miles    
Events      
T = Trace of Precipitation, MM = Missing Value Source: NWS Daily Summary

Daily Weather History Graph

Daily Weather History Graph

Search for Another Location

Airport or City:

Trip Planner

Search our weather history database for the weather conditions in past years. The results will help you decide how hot, cold, wet, or windy it might be!

Date:

Astronomy

Feb. 09, 2014 Rise Set
Actual Time 7:09 AM CST 6:19 PM CST
Civil Twilight 6:45 AM CST 6:42 PM CST
Nautical Twilight 6:18 AM CST 7:10 PM CST
Astronomical Twilight 5:51 AM CST 7:37 PM CST
Moon 2:09 PM CST (2/9) 3:05 AM CST (2/9)
Length of Visible Light 11h 57m
Length of Day
11h 09m
Waxing Gibbous, 77% of the Moon is Illuminated
Feb 9
Waxing Gibbous
Feb 14
Full
Feb 22
Last Quarter
Mar 1
New
Mar 8
First Quarter

Hourly Weather History & Observations

Time (CST) Temp. Dew Point Humidity Pressure Visibility Wind Dir Wind Speed Gust Speed Precip Events Conditions
12:06 AM 55.4 °F 51.8 °F 88% 30.14 in 10.0 mi ENE 4.6 mph - N/A   Overcast
12:53 AM 54.0 °F 52.0 °F 93% 30.12 in 10.0 mi Calm Calm - N/A   Overcast
1:38 AM 55.4 °F 51.8 °F 88% 30.12 in 10.0 mi Calm Calm - N/A   Overcast
1:53 AM 55.0 °F 52.0 °F 89% 30.11 in 10.0 mi Calm Calm - N/A   Overcast
2:53 AM 55.0 °F 52.0 °F 89% 30.10 in 10.0 mi Calm Calm - N/A   Overcast
3:53 AM 55.0 °F 52.0 °F 89% 30.09 in 10.0 mi Calm Calm - N/A   Overcast
4:53 AM 55.0 °F 52.0 °F 89% 30.08 in 10.0 mi Calm Calm - N/A   Overcast
5:31 AM 55.4 °F 53.6 °F 94% 30.08 in 10.0 mi Calm Calm - N/A   Overcast
5:53 AM 55.0 °F 53.1 °F 93% 30.07 in 10.0 mi Calm Calm - N/A   Overcast
6:53 AM 55.0 °F 53.1 °F 93% 30.09 in 10.0 mi Calm Calm - N/A   Overcast
7:53 AM 55.9 °F 53.1 °F 90% 30.11 in 10.0 mi Calm Calm - N/A   Overcast
8:03 AM 57.2 °F 53.6 °F 88% 30.11 in 4.0 mi Calm Calm - N/A   Haze
8:53 AM 61.0 °F 55.9 °F 83% 30.10 in 4.0 mi ESE 3.5 mph - N/A   Haze
9:15 AM 64.4 °F 60.8 °F 88% 30.11 in 10.0 mi Calm Calm - N/A   Haze
9:53 AM 70.0 °F 63.0 °F 78% 30.11 in 10.0 mi ESE 4.6 mph - N/A   Haze
10:53 AM 72.0 °F 64.0 °F 76% 30.11 in 10.0 mi Calm Calm - N/A   Overcast
11:53 AM 71.1 °F 64.0 °F 78% 30.09 in 10.0 mi ENE 6.9 mph - N/A   Overcast
12:53 PM 73.0 °F 64.9 °F 76% 30.06 in 6.0 mi East 8.1 mph - N/A   Haze
1:45 PM 71.6 °F 64.4 °F 78% 30.05 in 6.0 mi ESE 6.9 mph - N/A   Haze
1:53 PM 72.0 °F 64.9 °F 78% 30.04 in 6.0 mi East 6.9 mph - N/A   Haze
2:03 PM 71.6 °F 66.2 °F 83% 30.04 in 10.0 mi ESE 8.1 mph - N/A   Haze
2:27 PM 71.6 °F 66.2 °F 83% 30.03 in 10.0 mi SE 4.6 mph - N/A   Haze
2:53 PM 73.9 °F 66.0 °F 76% 30.01 in 10.0 mi Variable 6.9 mph - N/A   Haze
3:42 PM 75.2 °F 64.4 °F 69% 30.00 in 10.0 mi SSE 9.2 mph - N/A   Overcast
3:53 PM 75.0 °F 66.0 °F 73% 30.00 in 10.0 mi South 12.7 mph - N/A   Overcast
4:03 PM 75.2 °F 64.4 °F 69% 30.00 in 10.0 mi South 10.4 mph - N/A   Overcast
4:14 PM 75.2 °F 64.4 °F 69% 30.00 in 10.0 mi South 13.8 mph - N/A   Overcast
4:23 PM 75.2 °F 64.4 °F 69% 30.00 in 10.0 mi SE 12.7 mph - N/A   Overcast
4:30 PM 75.2 °F 64.4 °F 69% 30.00 in 10.0 mi SSE 15.0 mph - N/A   Overcast
4:41 PM 75.2 °F 64.4 °F 69% 30.00 in 10.0 mi SSE 13.8 mph - N/A   Overcast
4:53 PM 73.9 °F 64.9 °F 73% 30.00 in 10.0 mi SSE 13.8 mph - N/A   Mostly Cloudy
5:53 PM 71.1 °F 64.9 °F 81% 30.00 in 10.0 mi SSE 9.2 mph - N/A   Overcast
6:53 PM 70.0 °F 64.9 °F 84% 30.00 in 10.0 mi SSE 11.5 mph - N/A   Overcast
7:53 PM 68.0 °F 64.9 °F 90% 30.02 in 10.0 mi SSE 8.1 mph - N/A   Overcast
8:33 PM 66.2 °F 64.4 °F 94% 30.02 in 10.0 mi South 6.9 mph - N/A   Overcast
8:53 PM 66.0 °F 64.0 °F 93% 30.02 in 10.0 mi SSE 4.6 mph - N/A   Overcast
9:53 PM 64.9 °F 64.0 °F 97% 30.01 in 10.0 mi SSE 6.9 mph - N/A   Mostly Cloudy
10:53 PM 66.0 °F 64.9 °F 96% 30.00 in 9.0 mi South 9.2 mph - N/A   Partly Cloudy
11:10 PM 66.2 °F 64.4 °F 94% 30.00 in 9.0 mi South 10.4 mph - N/A   Partly Cloudy
11:32 PM 66.2 °F 64.4 °F 94% 30.00 in 8.0 mi South 5.8 mph - N/A   Mostly Cloudy
11:53 PM 66.0 °F 64.9 °F 96% 30.00 in 9.0 mi South 5.8 mph - N/A   Overcast